Meacham, OR

8:55 AM PDT on March 25, 2017 (GMT -0700)
Meacham

Weather History for KMEH - March, 2014

Change the Weather History Date:

Monday, March 24, 2014

  Actual Average Record
Temperature  
Mean Temperature 41 °F -  
Max Temperature 62 °F 45 °F 64 °F (2007)
Min Temperature 21 °F 25 °F 5 °F (2013)
Degree Days  
Heating Degree Days 24    
Moisture  
Dew Point 24 °F    
Average Humidity 56    
Maximum Humidity 89    
Minimum Humidity 22    
Precipitation  
Precipitation 0.00 in - - ()
Sea Level Pressure  
Sea Level Pressure 30.16 in    
Wind  
Wind Speed 1 mph (East)    
Max Wind Speed 6 mph    
Max Gust Speed -    
Visibility 10 miles    
Events      
Averages and records for this station are not official NWS values.
T = Trace of Precipitation, MM = Missing Value Source: NWS Daily Summary

Daily Weather History Graph

Daily Weather History Graph

Search for Another Location

Airport or City:

Trip Planner

Search our weather history database for the weather conditions in past years. The results will help you decide how hot, cold, wet, or windy it might be!

Date:

Astronomy

Mar. 24, 2014 Rise Set
Actual Time 6:48 AM PDT 7:11 PM PDT
Civil Twilight 6:19 AM PDT 7:41 PM PDT
Nautical Twilight 5:44 AM PDT 8:16 PM PDT
Astronomical Twilight 5:08 AM PDT 8:52 PM PDT
Moon 2:39 AM PDT (3/24) 12:26 PM PDT (3/24)
Length of Visible Light 13h 21m
Length of Day
12h 22m
Last Quarter, 42% of the Moon is Illuminated
Mar 24
Last Quarter
Mar 30
New
Apr 7
First Quarter
Apr 15
Full
Apr 22
Last Quarter

Hourly Weather History & Observations

Time (PDT) Temp. Windchill Dew Point Humidity Pressure Visibility Wind Dir Wind Speed Gust Speed Precip Events Conditions
12:56 AM 26.1 °F - 21.9 °F 84% 30.27 in 10.0 mi Calm Calm - N/A   Clear
1:56 AM 25.0 °F - 21.9 °F 88% 30.27 in 10.0 mi Calm Calm - N/A   Clear
2:56 AM 24.1 °F - 21.0 °F 88% 30.27 in 10.0 mi Calm Calm - N/A   Clear
3:56 AM 24.1 °F - 21.0 °F 88% 30.25 in 10.0 mi Calm Calm - N/A   Clear
4:56 AM 23.0 °F - 19.9 °F 88% 30.26 in 10.0 mi Calm Calm - N/A   Clear
5:56 AM 21.9 °F - 19.0 °F 89% 30.27 in 10.0 mi Calm Calm - N/A   Clear
6:56 AM 21.9 °F - 19.0 °F 89% 30.27 in 10.0 mi Calm Calm - N/A   Clear
7:56 AM 26.1 °F - 23.0 °F 88% 30.27 in 10.0 mi Calm Calm - N/A   Clear
8:56 AM 34.0 °F - 28.9 °F 82% 30.26 in 10.0 mi Calm Calm - N/A   Clear
9:56 AM 44.1 °F 42.5 °F 26.1 °F 49% 30.24 in 10.0 mi Variable 3.5 mph - N/A   Clear
10:56 AM 50.0 °F - 25.0 °F 38% 30.22 in 10.0 mi Calm Calm - N/A   Clear
11:56 AM 54.0 °F - 24.1 °F 31% 30.20 in 10.0 mi Calm Calm - N/A   Clear
12:56 PM 57.0 °F - 23.0 °F 27% 30.18 in 10.0 mi Variable 3.5 mph - N/A   Clear
1:56 PM 59.0 °F - 21.9 °F 24% 30.16 in 10.0 mi Variable 3.5 mph - N/A   Clear
2:56 PM 61.0 °F - 24.1 °F 24% 30.14 in 10.0 mi ESE 3.5 mph - N/A   Clear
3:56 PM 61.0 °F - 21.9 °F 22% 30.12 in 10.0 mi ENE 5.8 mph - N/A   Clear
4:56 PM 60.1 °F - 26.1 °F 27% 30.10 in 10.0 mi Calm Calm - N/A   Clear
5:56 PM 57.0 °F - 27.0 °F 32% 30.09 in 10.0 mi Variable 3.5 mph - N/A   Clear
6:56 PM 52.0 °F - 26.1 °F 37% 30.09 in 10.0 mi Calm Calm - N/A   Clear
7:56 PM 43.0 °F - 27.0 °F 53% 30.09 in 10.0 mi Calm Calm - N/A   Clear
8:56 PM 41.0 °F - 28.0 °F 60% 30.05 in 10.0 mi Calm Calm - N/A   Clear
9:56 PM 46.0 °F - 25.0 °F 44% 30.00 in 10.0 mi Calm Calm - N/A   Clear
10:56 PM 46.0 °F - 25.0 °F 44% 29.96 in 10.0 mi Calm Calm - N/A   Clear
11:56 PM 46.0 °F - 25.0 °F 44% 29.92 in 10.0 mi Calm Calm - N/A   Clear